| time (UTC) | temp F | wind direction | speed MPH | gust MPH | rain 1hr in | rain 24hr in | rain mn in | humidity % | barometer mb |
| 20260507033006 | 54 | 40 | 0.0 | 3.0 | 0.00 | 0.00 | 0.00 | 60 | 1018.2 |
| 20260507032506 | 55 | 40 | 0.0 | 3.0 | 0.00 | 0.00 | 0.00 | 59 | 1018.1 |
| 20260507032006 | 55 | 0 | 0.0 | 0.0 | 0.00 | 0.00 | 0.00 | 59 | 1018.1 |
| 20260507031527 | 55 | 39 | 0.0 | 2.0 | 0.00 | 0.00 | 0.00 | 58 | 1018.0 |
| 20260507031006 | 55 | 39 | 0.0 | 2.0 | 0.00 | 0.00 | 0.00 | 58 | 1018.0 |
| 20260507030527 | 56 | 38 | 0.0 | 2.0 | 0.00 | 0.00 | 0.00 | 58 | 1017.8 |
| 20260507030006 | 56 | 38 | 1.0 | 3.0 | 0.00 | 0.00 | 0.00 | 58 | 1017.8 |
| 20260507025506 | 56 | 38 | 0.0 | 3.0 | 0.00 | 0.00 | 0.00 | 57 | 1017.7 |
| 20260507025027 | 56 | 38 | 1.0 | 3.0 | 0.00 | 0.00 | 0.00 | 56 | 1017.6 |
| 20260507024506 | 57 | 37 | 1.0 | 4.0 | 0.00 | 0.00 | 0.00 | 56 | 1017.6 |
| 20260507024006 | 57 | 36 | 1.0 | 4.0 | 0.00 | 0.00 | 0.00 | 55 | 1017.5 |
| 20260507023506 | 57 | 35 | 1.0 | 4.0 | 0.00 | 0.00 | 0.00 | 55 | 1017.4 |
| 20260507023027 | 57 | 36 | 2.0 | 4.0 | 0.00 | 0.00 | 0.00 | 55 | 1017.4 |
| 20260507022506 | 58 | 42 | 2.0 | 4.0 | 0.00 | 0.00 | 0.00 | 54 | 1017.3 |
| 20260507022027 | 58 | 46 | 2.0 | 5.0 | 0.00 | 0.00 | 0.00 | 54 | 1017.3 |
| 20260507021506 | 58 | 47 | 2.0 | 6.0 | 0.00 | 0.00 | 0.00 | 54 | 1017.2 |
| 20260507021006 | 58 | 48 | 2.0 | 6.0 | 0.00 | 0.00 | 0.00 | 53 | 1017.1 |
| 20260507020506 | 59 | 39 | 2.0 | 6.0 | 0.00 | 0.00 | 0.00 | 52 | 1017.1 |
| 20260507020027 | 59 | 40 | 3.0 | 6.0 | 0.00 | 0.00 | 0.00 | 53 | 1017.0 |
| 20260507015506 | 59 | 39 | 4.0 | 10.0 | 0.00 | 0.00 | 0.00 | 52 | 1016.9 |
| 20260507015006 | 60 | 38 | 5.0 | 10.0 | 0.00 | 0.00 | 0.00 | 51 | 1016.8 |
| 20260507014506 | 60 | 39 | 4.0 | 10.0 | 0.00 | 0.00 | 0.00 | 51 | 1016.7 |
| 20260507014006 | 60 | 42 | 4.0 | 10.0 | 0.00 | 0.00 | 0.00 | 50 | 1016.7 |
| 20260507013506 | 61 | 44 | 5.0 | 11.0 | 0.00 | 0.00 | 0.00 | 50 | 1016.6 |
| 20260507013005 | 61 | 51 | 5.0 | 11.0 | 0.00 | 0.00 | 0.00 | 49 | 1016.6 |
| 20260507012506 | 61 | 58 | 6.0 | 10.0 | 0.00 | 0.00 | 0.00 | 49 | 1016.5 |
| 20260507012006 | 61 | 46 | 6.0 | 13.0 | 0.00 | 0.00 | 0.00 | 49 | 1016.5 |
| 20260507011506 | 62 | 38 | 6.0 | 13.0 | 0.00 | 0.00 | 0.00 | 49 | 1016.5 |
| 20260507011006 | 62 | 42 | 6.0 | 14.0 | 0.00 | 0.00 | 0.00 | 48 | 1016.5 |
| 20260507010506 | 62 | 45 | 5.0 | 14.0 | 0.00 | 0.00 | 0.00 | 48 | 1016.4 |
| 20260507010005 | 62 | 49 | 6.0 | 13.0 | 0.00 | 0.00 | 0.00 | 48 | 1016.4 |
| 20260507005505 | 62 | 43 | 7.0 | 13.0 | 0.00 | 0.00 | 0.00 | 48 | 1016.4 |
| 20260507005006 | 63 | 30 | 8.0 | 15.0 | 0.00 | 0.00 | 0.00 | 48 | 1016.4 |
| 20260507004506 | 63 | 28 | 6.0 | 15.0 | 0.00 | 0.00 | 0.00 | 48 | 1016.4 |
| 20260507004006 | 63 | 39 | 4.0 | 10.0 | 0.00 | 0.00 | 0.00 | 48 | 1016.4 |
| 20260507003506 | 63 | 41 | 5.0 | 12.0 | 0.00 | 0.00 | 0.00 | 47 | 1016.3 |
| 20260507003005 | 64 | 35 | 7.0 | 14.0 | 0.00 | 0.00 | 0.00 | 47 | 1016.2 |
| 20260507002506 | 64 | 23 | 8.0 | 14.0 | 0.00 | 0.00 | 0.00 | 47 | 1016.2 |
| 20260507002006 | 64 | 15 | 8.0 | 15.0 | 0.00 | 0.00 | 0.00 | 47 | 1016.2 |
| 20260507001506 | 64 | 13 | 8.0 | 15.0 | 0.00 | 0.00 | 0.00 | 47 | 1016.2 |
| 20260507001006 | 65 | 16 | 9.0 | 15.0 | 0.00 | 0.00 | 0.00 | 46 | 1016.1 |
| 20260507000506 | 66 | 18 | 10.0 | 16.0 | 0.00 | 0.00 | 0.00 | 45 | 1016.0 |
| 20260507000006 | 66 | 19 | 9.0 | 16.0 | 0.00 | 0.00 | 0.00 | 44 | 1016.0 |
| 20260506235506 | 67 | 20 | 7.0 | 15.0 | 0.00 | 0.00 | 0.00 | 45 | 1015.9 |
| 20260506235006 | 67 | 22 | 7.0 | 15.0 | 0.00 | 0.00 | 0.00 | 44 | 1015.9 |
| 20260506234506 | 68 | 25 | 8.0 | 15.0 | 0.00 | 0.00 | 0.00 | 43 | 1015.8 |
| 20260506234006 | 68 | 22 | 7.0 | 13.0 | 0.00 | 0.00 | 0.00 | 44 | 1015.8 |
| 20260506233506 | 69 | 20 | 7.0 | 13.0 | 0.00 | 0.00 | 0.00 | 42 | 1015.8 |
| 20260506233006 | 70 | 25 | 7.0 | 13.0 | 0.00 | 0.00 | 0.00 | 41 | 1015.7 |
| 20260506232506 | 70 | 26 | 7.0 | 12.0 | 0.00 | 0.00 | 0.00 | 42 | 1015.6 |
| 20260506232027 | 70 | 22 | 8.0 | 13.0 | 0.00 | 0.00 | 0.00 | 41 | 1015.6 |
| 20260506231506 | 71 | 33 | 7.0 | 13.0 | 0.00 | 0.00 | 0.00 | 40 | 1015.6 |
| 20260506231006 | 71 | 50 | 6.0 | 13.0 | 0.00 | 0.00 | 0.00 | 39 | 1015.6 |
| 20260506230506 | 72 | 51 | 6.0 | 13.0 | 0.00 | 0.00 | 0.00 | 39 | 1015.5 |
| 20260506230027 | 72 | 54 | 5.0 | 12.0 | 0.00 | 0.00 | 0.00 | 41 | 1015.5 |
| 20260506225527 | 71 | 52 | 6.0 | 13.0 | 0.00 | 0.00 | 0.00 | 41 | 1015.5 |
| 20260506225006 | 71 | 48 | 7.0 | 15.0 | 0.00 | 0.00 | 0.00 | 42 | 1015.4 |
| 20260506224506 | 71 | 71 | 9.0 | 15.0 | 0.00 | 0.00 | 0.00 | 41 | 1015.3 |
| 20260506224006 | 71 | 88 | 10.0 | 15.0 | 0.00 | 0.00 | 0.00 | 42 | 1015.2 |
| 20260506223506 | 71 | 87 | 8.0 | 15.0 | 0.00 | 0.00 | 0.00 | 42 | 1015.2 |
| 20260506223006 | 71 | 77 | 7.0 | 13.0 | 0.00 | 0.00 | 0.00 | 42 | 1015.1 |
| 20260506222506 | 71 | 82 | 8.0 | 14.0 | 0.00 | 0.00 | 0.00 | 42 | 1015.0 |
| 20260506222006 | 70 | 76 | 8.0 | 14.0 | 0.00 | 0.00 | 0.00 | 42 | 1015.0 |
| 20260506221506 | 70 | 45 | 7.0 | 14.0 | 0.00 | 0.00 | 0.00 | 43 | 1014.9 |
| 20260506221006 | 70 | 36 | 6.0 | 14.0 | 0.00 | 0.00 | 0.00 | 41 | 1014.8 |
| 20260506220506 | 71 | 53 | 7.0 | 14.0 | 0.00 | 0.00 | 0.00 | 43 | 1014.8 |
| 20260506220006 | 70 | 54 | 9.0 | 16.0 | 0.00 | 0.00 | 0.00 | 43 | 1014.9 |
| 20260506215506 | 70 | 37 | 9.0 | 18.0 | 0.00 | 0.00 | 0.00 | 43 | 1014.9 |
| 20260506215006 | 69 | 23 | 7.0 | 18.0 | 0.00 | 0.00 | 0.00 | 45 | 1015.0 |
| 20260506214527 | 69 | 45 | 8.0 | 18.0 | 0.00 | 0.00 | 0.00 | 43 | 1015.0 |
| 20260506214006 | 69 | 64 | 9.0 | 18.0 | 0.00 | 0.00 | 0.00 | 42 | 1015.1 |
| 20260506213506 | 70 | 60 | 8.0 | 20.0 | 0.00 | 0.00 | 0.00 | 44 | 1015.1 |
| 20260506213006 | 70 | 57 | 7.0 | 20.0 | 0.00 | 0.00 | 0.00 | 44 | 1015.1 |
| 20260506212506 | 69 | 55 | 7.0 | 14.0 | 0.00 | 0.00 | 0.00 | 45 | 1015.2 |
| 20260506212006 | 69 | 43 | 8.0 | 21.0 | 0.00 | 0.00 | 0.00 | 45 | 1015.3 |
| 20260506211506 | 69 | 41 | 7.0 | 21.0 | 0.00 | 0.00 | 0.00 | 44 | 1015.3 |
| 20260506211006 | 69 | 29 | 4.0 | 21.0 | 0.00 | 0.00 | 0.00 | 46 | 1015.4 |
| 20260506210506 | 68 | 22 | 6.0 | 16.0 | 0.00 | 0.00 | 0.00 | 45 | 1015.4 |
| 20260506210006 | 68 | 34 | 10.0 | 20.0 | 0.00 | 0.00 | 0.00 | 46 | 1015.5 |
| 20260506205506 | 68 | 47 | 10.0 | 21.0 | 0.00 | 0.00 | 0.00 | 45 | 1015.6 |
| 20260506205006 | 68 | 47 | 8.0 | 21.0 | 0.00 | 0.00 | 0.00 | 47 | 1015.5 |
| 20260506204506 | 68 | 47 | 8.0 | 16.0 | 0.00 | 0.00 | 0.00 | 48 | 1015.7 |
| 20260506204006 | 68 | 57 | 7.0 | 16.0 | 0.00 | 0.00 | 0.00 | 47 | 1015.7 |
| 20260506203506 | 68 | 68 | 7.0 | 14.0 | 0.00 | 0.00 | 0.00 | 49 | 1015.8 |
| 20260506203006 | 68 | 66 | 8.0 | 16.0 | 0.00 | 0.00 | 0.00 | 48 | 1015.7 |
| 20260506202506 | 68 | 64 | 7.0 | 16.0 | 0.00 | 0.00 | 0.00 | 48 | 1015.9 |
| 20260506202006 | 68 | 52 | 7.0 | 15.0 | 0.00 | 0.00 | 0.00 | 51 | 1015.9 |
| 20260506201506 | 67 | 29 | 8.0 | 15.0 | 0.00 | 0.00 | 0.00 | 51 | 1015.9 |
| 20260506201006 | 66 | 32 | 8.0 | 16.0 | 0.00 | 0.00 | 0.00 | 51 | 1015.9 |
| 20260506200506 | 66 | 40 | 7.0 | 16.0 | 0.00 | 0.00 | 0.00 | 50 | 1016.0 |
| 20260506200006 | 66 | 27 | 8.0 | 15.0 | 0.00 | 0.00 | 0.00 | 52 | 1016.0 |
| 20260506195506 | 65 | 31 | 9.0 | 16.0 | 0.00 | 0.00 | 0.00 | 52 | 1016.0 |
| 20260506195006 | 65 | 49 | 8.0 | 17.0 | 0.00 | 0.00 | 0.00 | 54 | 1016.0 |
| 20260506194506 | 64 | 44 | 8.0 | 17.0 | 0.00 | 0.00 | 0.00 | 53 | 1016.0 |
| 20260506194006 | 64 | 28 | 9.0 | 16.0 | 0.00 | 0.00 | 0.00 | 53 | 1016.1 |
| 20260506193506 | 64 | 26 | 9.0 | 16.0 | 0.00 | 0.00 | 0.00 | 53 | 1016.2 |
| 20260506193006 | 64 | 31 | 8.0 | 15.0 | 0.00 | 0.00 | 0.00 | 53 | 1016.3 |
| 20260506192506 | 64 | 41 | 6.0 | 13.0 | 0.00 | 0.00 | 0.00 | 53 | 1016.3 |
| 20260506192006 | 63 | 42 | 7.0 | 16.0 | 0.00 | 0.00 | 0.00 | 54 | 1016.4 |
| 20260506191506 | 63 | 43 | 8.0 | 17.0 | 0.00 | 0.00 | 0.00 | 55 | 1016.3 |
| 20260506191027 | 63 | 47 | 8.0 | 17.0 | 0.00 | 0.00 | 0.00 | 54 | 1016.4 |
| 20260506190527 | 63 | 46 | 7.0 | 16.0 | 0.00 | 0.00 | 0.00 | 55 | 1016.4 |
| 20260506190006 | 63 | 43 | 7.0 | 16.0 | 0.00 | 0.00 | 0.00 | 52 | 1016.5 |
| 20260506185506 | 64 | 59 | 7.0 | 14.0 | 0.00 | 0.00 | 0.00 | 52 | 1016.5 |
| 20260506185006 | 64 | 79 | 8.0 | 15.0 | 0.00 | 0.00 | 0.00 | 53 | 1016.5 |
| 20260506184506 | 64 | 86 | 8.0 | 15.0 | 0.00 | 0.00 | 0.00 | 52 | 1016.5 |
| 20260506184027 | 64 | 75 | 8.0 | 13.0 | 0.00 | 0.00 | 0.00 | 52 | 1016.5 |
| 20260506183506 | 64 | 63 | 9.0 | 17.0 | 0.00 | 0.00 | 0.00 | 52 | 1016.7 |
| 20260506183027 | 64 | 63 | 8.0 | 17.0 | 0.00 | 0.00 | 0.00 | 51 | 1016.7 |
| 20260506182506 | 64 | 68 | 8.0 | 16.0 | 0.00 | 0.00 | 0.00 | 53 | 1016.7 |
| 20260506182006 | 64 | 70 | 9.0 | 18.0 | 0.00 | 0.00 | 0.00 | 52 | 1016.8 |
| 20260506181506 | 64 | 75 | 8.0 | 18.0 | 0.00 | 0.00 | 0.00 | 51 | 1016.9 |
| 20260506181006 | 64 | 77 | 7.0 | 15.0 | 0.00 | 0.00 | 0.00 | 52 | 1016.9 |
| 20260506180506 | 64 | 80 | 7.0 | 16.0 | 0.00 | 0.00 | 0.00 | 53 | 1016.9 |
| 20260506180006 | 64 | 67 | 8.0 | 17.0 | 0.00 | 0.00 | 0.00 | 51 | 1017.0 |
| 20260506175506 | 64 | 64 | 9.0 | 17.0 | 0.00 | 0.00 | 0.00 | 51 | 1017.0 |
| 20260506175006 | 64 | 70 | 9.0 | 16.0 | 0.00 | 0.00 | 0.00 | 53 | 1017.0 |
| 20260506174506 | 64 | 67 | 9.0 | 17.0 | 0.00 | 0.00 | 0.00 | 54 | 1017.0 |
| 20260506174006 | 64 | 66 | 8.0 | 17.0 | 0.00 | 0.00 | 0.00 | 53 | 1017.1 |
| 20260506173506 | 64 | 65 | 7.0 | 15.0 | 0.00 | 0.00 | 0.00 | 53 | 1017.2 |
| 20260506173027 | 64 | 61 | 8.0 | 16.0 | 0.00 | 0.00 | 0.00 | 54 | 1017.1 |
| 20260506172506 | 64 | 58 | 8.0 | 18.0 | 0.00 | 0.00 | 0.00 | 55 | 1017.2 |
| 20260506172006 | 63 | 53 | 9.0 | 18.0 | 0.00 | 0.00 | 0.00 | 54 | 1017.2 |
| 20260506171506 | 63 | 57 | 8.0 | 17.0 | 0.00 | 0.00 | 0.00 | 55 | 1017.1 |
| 20260506171006 | 63 | 64 | 10.0 | 16.0 | 0.00 | 0.00 | 0.00 | 56 | 1017.1 |
| 20260506170506 | 62 | 58 | 10.0 | 16.0 | 0.00 | 0.00 | 0.00 | 55 | 1017.1 |
| 20260506170027 | 62 | 51 | 10.0 | 17.0 | 0.00 | 0.00 | 0.00 | 54 | 1017.1 |
| 20260506165527 | 62 | 53 | 10.0 | 17.0 | 0.00 | 0.00 | 0.00 | 56 | 1017.2 |
| 20260506165027 | 62 | 63 | 9.0 | 15.0 | 0.00 | 0.00 | 0.00 | 55 | 1017.1 |
| 20260506164527 | 62 | 71 | 10.0 | 17.0 | 0.00 | 0.00 | 0.00 | 55 | 1017.2 |
| 20260506164027 | 62 | 70 | 12.0 | 18.0 | 0.00 | 0.00 | 0.00 | 53 | 1017.4 |
| 20260506163506 | 62 | 75 | 12.0 | 20.0 | 0.00 | 0.00 | 0.00 | 55 | 1017.3 |
| 20260506163006 | 62 | 77 | 11.0 | 20.0 | 0.00 | 0.00 | 0.00 | 55 | 1017.4 |
| 20260506162506 | 61 | 77 | 12.0 | 21.0 | 0.00 | 0.00 | 0.00 | 56 | 1017.6 |
| 20260506162027 | 61 | 75 | 12.0 | 21.0 | 0.00 | 0.00 | 0.00 | 56 | 1017.5 |
| 20260506161506 | 60 | 76 | 13.0 | 21.0 | 0.00 | 0.00 | 0.00 | 58 | 1017.5 |
| 20260506161006 | 59 | 76 | 13.0 | 21.0 | 0.00 | 0.00 | 0.00 | 57 | 1017.4 |
| 20260506160506 | 59 | 73 | 11.0 | 18.0 | 0.00 | 0.00 | 0.00 | 58 | 1017.3 |
| 20260506160005 | 58 | 72 | 11.0 | 21.0 | 0.00 | 0.00 | 0.00 | 60 | 1017.2 |
| 20260506155526 | 58 | 73 | 12.0 | 23.0 | 0.00 | 0.00 | 0.00 | 59 | 1017.2 |
| 20260506155005 | 58 | 73 | 12.0 | 23.0 | 0.00 | 0.00 | 0.00 | 60 | 1017.3 |
| 20260506154505 | 57 | 74 | 12.0 | 21.0 | 0.00 | 0.00 | 0.00 | 60 | 1017.2 |
| 20260506154026 | 57 | 74 | 14.0 | 21.0 | 0.00 | 0.00 | 0.00 | 60 | 1017.1 |
| 20260506153505 | 57 | 66 | 14.0 | 21.0 | 0.00 | 0.00 | 0.00 | 60 | 1017.0 |
| 20260506153005 | 57 | 62 | 12.0 | 20.0 | 0.00 | 0.00 | 0.00 | 61 | 1017.1 |
| 20260506152505 | 57 | 68 | 11.0 | 20.0 | 0.00 | 0.00 | 0.00 | 62 | 1017.1 |
| 20260506152005 | 56 | 68 | 10.0 | 17.0 | 0.00 | 0.00 | 0.00 | 64 | 1017.1 |
| 20260506151526 | 56 | 64 | 11.0 | 19.0 | 0.00 | 0.00 | 0.00 | 66 | 1017.1 |
| 20260506151005 | 55 | 71 | 12.0 | 20.0 | 0.00 | 0.00 | 0.00 | 66 | 1017.1 |
| 20260506150526 | 54 | 74 | 12.0 | 20.0 | 0.00 | 0.00 | 0.00 | 67 | 1017.1 |
| 20260506150026 | 54 | 70 | 12.0 | 19.0 | 0.00 | 0.00 | 0.00 | 68 | 1017.0 |
| 20260506145526 | 53 | 66 | 12.0 | 21.0 | 0.00 | 0.00 | 0.00 | 69 | 1017.1 |
| 20260506145005 | 53 | 64 | 11.0 | 19.0 | 0.00 | 0.00 | 0.00 | 71 | 1017.0 |
| 20260506144505 | 53 | 57 | 10.0 | 18.0 | 0.00 | 0.00 | 0.00 | 73 | 1016.9 |
| 20260506144005 | 52 | 54 | 10.0 | 20.0 | 0.00 | 0.00 | 0.00 | 73 | 1016.6 |
| 20260506143505 | 52 | 53 | 10.0 | 20.0 | 0.00 | 0.00 | 0.00 | 72 | 1016.5 |
| 20260506143005 | 52 | 50 | 9.0 | 18.0 | 0.00 | 0.00 | 0.00 | 74 | 1016.6 |
| 20260506142505 | 52 | 57 | 9.0 | 17.0 | 0.00 | 0.00 | 0.00 | 74 | 1016.5 |
| 20260506142005 | 52 | 59 | 9.0 | 18.0 | 0.00 | 0.00 | 0.00 | 74 | 1016.6 |
| 20260506141505 | 51 | 55 | 10.0 | 20.0 | 0.00 | 0.00 | 0.00 | 74 | 1016.6 |
| 20260506141005 | 51 | 57 | 11.0 | 20.0 | 0.00 | 0.00 | 0.00 | 74 | 1016.6 |
| 20260506140505 | 51 | 63 | 11.0 | 16.0 | 0.00 | 0.00 | 0.00 | 75 | 1016.5 |
| 20260506140005 | 51 | 60 | 10.0 | 17.0 | 0.00 | 0.00 | 0.00 | 76 | 1016.7 |
| 20260506135505 | 51 | 50 | 8.0 | 17.0 | 0.00 | 0.00 | 0.00 | 77 | 1016.7 |
| 20260506135005 | 50 | 44 | 7.0 | 14.0 | 0.00 | 0.00 | 0.00 | 78 | 1016.7 |
| 20260506134505 | 50 | 49 | 7.0 | 16.0 | 0.00 | 0.00 | 0.00 | 78 | 1016.7 |
| 20260506134005 | 50 | 46 | 8.0 | 17.0 | 0.00 | 0.00 | 0.00 | 79 | 1016.7 |
| 20260506133526 | 50 | 43 | 7.0 | 17.0 | 0.00 | 0.00 | 0.00 | 79 | 1016.7 |
| 20260506133005 | 50 | 44 | 7.0 | 17.0 | 0.00 | 0.00 | 0.00 | 79 | 1016.9 |
| 20260506132505 | 49 | 37 | 8.0 | 17.0 | 0.00 | 0.00 | 0.00 | 79 | 1017.0 |
| 20260506132005 | 49 | 32 | 8.0 | 15.0 | 0.00 | 0.00 | 0.00 | 80 | 1016.9 |
| 20260506131505 | 49 | 28 | 9.0 | 15.0 | 0.00 | 0.00 | 0.00 | 80 | 1016.8 |
| 20260506131005 | 49 | 31 | 9.0 | 17.0 | 0.00 | 0.00 | 0.00 | 80 | 1016.7 |
| 20260506130505 | 49 | 37 | 8.0 | 17.0 | 0.00 | 0.00 | 0.00 | 80 | 1016.6 |
| 20260506130005 | 49 | 36 | 8.0 | 15.0 | 0.00 | 0.00 | 0.00 | 80 | 1016.5 |
| 20260506125505 | 49 | 34 | 8.0 | 15.0 | 0.00 | 0.00 | 0.00 | 80 | 1016.6 |
| 20260506125005 | 49 | 35 | 7.0 | 14.0 | 0.00 | 0.00 | 0.00 | 81 | 1016.6 |
| 20260506124506 | 49 | 35 | 7.0 | 13.0 | 0.00 | 0.00 | 0.00 | 81 | 1016.5 |
| 20260506124026 | 49 | 33 | 8.0 | 14.0 | 0.00 | 0.00 | 0.00 | 81 | 1016.4 |
| 20260506123505 | 49 | 35 | 7.0 | 18.0 | 0.00 | 0.00 | 0.00 | 81 | 1016.3 |
| 20260506123026 | 49 | 37 | 8.0 | 18.0 | 0.00 | 0.00 | 0.00 | 81 | 1016.0 |
| 20260506122505 | 49 | 36 | 9.0 | 15.0 | 0.00 | 0.00 | 0.00 | 81 | 1016.0 |
| 20260506122005 | 48 | 42 | 8.0 | 16.0 | 0.00 | 0.00 | 0.00 | 81 | 1016.0 |
| 20260506121505 | 48 | 42 | 8.0 | 17.0 | 0.00 | 0.00 | 0.00 | 81 | 1015.8 |
| 20260506121026 | 48 | 40 | 9.0 | 18.0 | 0.00 | 0.00 | 0.00 | 81 | 1015.6 |
| 20260506120526 | 48 | 42 | 8.0 | 18.0 | 0.00 | 0.00 | 0.00 | 81 | 1015.6 |
| 20260506120005 | 48 | 37 | 9.0 | 16.0 | 0.00 | 0.00 | 0.00 | 81 | 1015.4 |
| 20260506115505 | 48 | 38 | 8.0 | 15.0 | 0.00 | 0.00 | 0.00 | 81 | 1015.5 |
| 20260506115005 | 48 | 43 | 7.0 | 15.0 | 0.00 | 0.00 | 0.00 | 81 | 1015.5 |
| 20260506114526 | 48 | 40 | 7.0 | 13.0 | 0.00 | 0.00 | 0.00 | 81 | 1015.5 |
| 20260506114005 | 48 | 38 | 6.0 | 13.0 | 0.00 | 0.00 | 0.00 | 81 | 1015.5 |
| 20260506113505 | 48 | 35 | 6.0 | 12.0 | 0.00 | 0.00 | 0.00 | 81 | 1015.3 |
| 20260506113005 | 48 | 33 | 6.0 | 12.0 | 0.00 | 0.00 | 0.00 | 81 | 1015.2 |
| 20260506112505 | 48 | 35 | 5.0 | 12.0 | 0.00 | 0.00 | 0.00 | 81 | 1015.3 |
| 20260506112005 | 48 | 30 | 6.0 | 13.0 | 0.00 | 0.00 | 0.00 | 80 | 1015.2 |
| 20260506111505 | 48 | 31 | 6.0 | 13.0 | 0.00 | 0.00 | 0.00 | 80 | 1014.9 |
| 20260506111005 | 48 | 34 | 5.0 | 13.0 | 0.00 | 0.00 | 0.00 | 80 | 1015.0 |
| 20260506110505 | 48 | 35 | 5.0 | 13.0 | 0.00 | 0.00 | 0.00 | 79 | 1015.0 |
| 20260506110005 | 49 | 39 | 5.0 | 11.0 | 0.00 | 0.00 | 0.00 | 79 | 1015.0 |
| 20260506105505 | 49 | 33 | 6.0 | 11.0 | 0.00 | 0.00 | 0.00 | 79 | 1014.9 |
| 20260506105005 | 49 | 25 | 8.0 | 15.0 | 0.00 | 0.00 | 0.00 | 79 | 1014.8 |
| 20260506104505 | 49 | 22 | 8.0 | 15.0 | 0.00 | 0.00 | 0.00 | 79 | 1015.5 |
| 20260506104005 | 49 | 20 | 5.0 | 13.0 | 0.00 | 0.00 | 0.00 | 79 | 1015.7 |
| 20260506103505 | 49 | 21 | 3.0 | 9.0 | 0.00 | 0.00 | 0.00 | 78 | 1015.9 |
| 20260506103026 | 49 | 32 | 3.0 | 8.0 | 0.00 | 0.00 | 0.00 | 78 | 1016.0 |
| 20260506102505 | 49 | 33 | 5.0 | 11.0 | 0.00 | 0.00 | 0.00 | 78 | 1015.8 |
| 20260506102005 | 49 | 41 | 5.0 | 11.0 | 0.00 | 0.00 | 0.00 | 78 | 1015.4 |
| 20260506101505 | 49 | 58 | 3.0 | 9.0 | 0.00 | 0.00 | 0.00 | 78 | 1015.4 |
| 20260506101005 | 49 | 40 | 4.0 | 11.0 | 0.00 | 0.00 | 0.00 | 78 | 1015.5 |
| 20260506100505 | 49 | 26 | 6.0 | 11.0 | 0.00 | 0.00 | 0.00 | 78 | 1015.4 |
| 20260506100005 | 49 | 20 | 6.0 | 11.0 | 0.00 | 0.00 | 0.00 | 78 | 1015.4 |
| 20260506095505 | 49 | 25 | 5.0 | 11.0 | 0.00 | 0.00 | 0.00 | 78 | 1015.3 |
| 20260506095005 | 49 | 23 | 7.0 | 14.0 | 0.00 | 0.00 | 0.00 | 77 | 1015.3 |
| 20260506094526 | 49 | 21 | 7.0 | 14.0 | 0.00 | 0.00 | 0.00 | 77 | 1015.0 |
| 20260506094005 | 49 | 25 | 7.0 | 11.0 | 0.00 | 0.00 | 0.00 | 77 | 1014.9 |
| 20260506093526 | 49 | 30 | 5.0 | 11.0 | 0.00 | 0.00 | 0.00 | 77 | 1014.6 |
| 20260506093005 | 49 | 26 | 6.0 | 16.0 | 0.00 | 0.00 | 0.00 | 77 | 1014.5 |
| 20260506092505 | 49 | 25 | 7.0 | 16.0 | 0.00 | 0.00 | 0.00 | 77 | 1014.4 |
| 20260506092005 | 49 | 27 | 7.0 | 15.0 | 0.00 | 0.00 | 0.00 | 76 | 1014.3 |
| 20260506091505 | 49 | 23 | 8.0 | 14.0 | 0.00 | 0.00 | 0.00 | 76 | 1014.3 |
| 20260506091005 | 49 | 23 | 0.0 | 14.0 | 0.00 | 0.00 | 0.00 | 76 | 1014.3 |
| 20260506090505 | 49 | 23 | 9.0 | 13.0 | 0.00 | 0.00 | 0.00 | 75 | 1014.2 |
| 20260506090005 | 49 | 20 | 9.0 | 13.0 | 0.00 | 0.00 | 0.00 | 75 | 1014.1 |
| 20260506085505 | 49 | 23 | 9.0 | 13.0 | 0.00 | 0.00 | 0.00 | 75 | 1014.2 |
| 20260506085005 | 49 | 23 | 9.0 | 13.0 | 0.00 | 0.00 | 0.00 | 75 | 1014.2 |
| 20260506084505 | 49 | 20 | 9.0 | 15.0 | 0.00 | 0.00 | 0.00 | 74 | 1014.1 |
| 20260506084005 | 49 | 18 | 9.0 | 15.0 | 0.00 | 0.00 | 0.00 | 74 | 1014.2 |
| 20260506083505 | 49 | 18 | 6.0 | 15.0 | 0.00 | 0.00 | 0.00 | 74 | 1014.1 |
| 20260506083026 | 49 | 17 | 6.0 | 13.0 | 0.00 | 0.00 | 0.00 | 74 | 1013.9 |
| 20260506082526 | 49 | 20 | 9.0 | 14.0 | 0.00 | 0.00 | 0.00 | 74 | 1013.6 |
| 20260506082005 | 49 | 23 | 8.0 | 14.0 | 0.00 | 0.00 | 0.00 | 74 | 1013.4 |
| 20260506081505 | 49 | 22 | 9.0 | 15.0 | 0.00 | 0.00 | 0.00 | 74 | 1013.3 |
| 20260506081005 | 49 | 21 | 9.0 | 15.0 | 0.00 | 0.00 | 0.00 | 74 | 1013.4 |
| 20260506080526 | 49 | 22 | 8.0 | 15.0 | 0.00 | 0.00 | 0.00 | 74 | 1013.4 |
| 20260506073505 | 49 | 63 | 5.0 | 11.0 | 0.00 | 0.00 | 0.00 | 73 | 1013.0 |
| 20260506073005 | 49 | 54 | 5.0 | 12.0 | 0.00 | 0.00 | 0.00 | 73 | 1012.9 |
| 20260506072505 | 49 | 46 | 5.0 | 12.0 | 0.00 | 0.00 | 0.00 | 73 | 1012.8 |
| 20260506072005 | 49 | 48 | 5.0 | 11.0 | 0.00 | 0.00 | 0.00 | 73 | 1012.7 |
| 20260506071526 | 49 | 54 | 6.0 | 11.0 | 0.00 | 0.00 | 0.00 | 73 | 1012.6 |
| 20260506071005 | 49 | 50 | 5.0 | 11.0 | 0.00 | 0.00 | 0.00 | 73 | 1012.6 |
| 20260506070505 | 50 | 47 | 4.0 | 11.0 | 0.00 | 0.00 | 0.00 | 73 | 1012.6 |
| 20260506062505 | 50 | 50 | 3.0 | 12.0 | 0.00 | 0.00 | 0.00 | 72 | 1012.9 |
| 20260506062005 | 50 | 59 | 3.0 | 10.0 | 0.00 | 0.00 | 0.00 | 72 | 1012.9 |
| 20260506061505 | 50 | 57 | 4.0 | 10.0 | 0.00 | 0.00 | 0.00 | 72 | 1012.9 |
| 20260506061026 | 50 | 54 | 4.0 | 11.0 | 0.00 | 0.00 | 0.00 | 72 | 1012.9 |
| 20260506060505 | 50 | 51 | 4.0 | 11.0 | 0.00 | 0.00 | 0.00 | 72 | 1012.7 |
| 20260506051005 | 50 | 45 | 5.0 | 15.0 | 0.00 | 0.00 | 0.00 | 72 | 1012.8 |
| 20260506050505 | 50 | 51 | 6.0 | 12.0 | 0.00 | 0.00 | 0.00 | 71 | 1012.5 |
| 20260506045005 | 50 | 53 | 6.0 | 16.0 | 0.00 | 0.00 | 0.00 | 71 | 1012.7 |
| 20260506044505 | 50 | 57 | 7.0 | 16.0 | 0.00 | 0.00 | 0.00 | 71 | 1012.7 |
| 20260506044004 | 50 | 55 | 6.0 | 12.0 | 0.00 | 0.00 | 0.00 | 71 | 1012.8 |
| 20260506043525 | 50 | 51 | 7.0 | 16.0 | 0.00 | 0.00 | 0.00 | 72 | 1012.9 |
| 20260506043004 | 50 | 50 | 7.0 | 16.0 | 0.00 | 0.00 | 0.00 | 72 | 1012.9 |
| 20260506042525 | 50 | 50 | 6.0 | 14.0 | 0.00 | 0.00 | 0.00 | 72 | 1012.8 |
| 20260506042005 | 50 | 55 | 7.0 | 16.0 | 0.00 | 0.00 | 0.00 | 73 | 1012.8 |
| 20260506041526 | 50 | 51 | 8.0 | 16.0 | 0.00 | 0.00 | 0.00 | 73 | 1012.8 |
| 20260506041005 | 49 | 44 | 7.0 | 16.0 | 0.00 | 0.00 | 0.00 | 73 | 1012.6 |
| 20260506040505 | 50 | 47 | 7.0 | 16.0 | 0.00 | 0.00 | 0.00 | 74 | 1012.8 |
| 20260506040004 | 50 | 48 | 8.0 | 17.0 | 0.00 | 0.00 | 0.00 | 74 | 1012.7 |
| 20260506035504 | 49 | 39 | 7.0 | 17.0 | 0.00 | 0.00 | 0.00 | 75 | 1012.6 |
| 20260506035004 | 49 | 40 | 7.0 | 15.0 | 0.00 | 0.00 | 0.00 | 76 | 1012.6 |
| 20260506034504 | 49 | 43 | 7.0 | 15.0 | 0.00 | 0.00 | 0.00 | 76 | 1012.7 |
| 20260506034005 | 49 | 42 | 8.0 | 16.0 | 0.00 | 0.00 | 0.00 | 77 | 1012.6 |
| 20260506033504 | 49 | 41 | 9.0 | 18.0 | 0.00 | 0.00 | 0.00 | 78 | 1012.5 |